Binghamton, NY

2:59 PM EDT on June 28, 2017 (GMT -0400)
Binghamton Regional-Link

Weather History for KBGM - June, 2013

Change the Weather History Date:

Tuesday, June 18, 2013

  Actual Average Record
Temperature  
Mean Temperature 63 °F 65 °F  
Max Temperature 72 °F 74 °F 92 °F (1957)
Min Temperature 54 °F 56 °F 43 °F (1986)
Degree Days  
Heating Degree Days 2 2  
Month to date heating degree days 77 71  
Since 1 June heating degree days 77 71  
Since 1 July heating degree days 6901 7175  
Cooling Degree Days 0 3  
Month to date cooling degree days 20 35  
Year to date cooling degree days 63 58  
Since 1 June cooling degree days 20 35  
Growing Degree Days 14 (Base 50)    
Moisture  
Dew Point 54 °F    
Average Humidity 77    
Maximum Humidity 93    
Minimum Humidity 61    
Precipitation  
Precipitation T in 0.15 in 1.17 in (2009)
Month to date precipitation 2.81 2.61  
Year to date precipitation 15.97 17.36  
Snow  
Snow 0.00 in 0.00 in 0.00 in (2002)
Month to date snowfall 0.0 0.0  
Since 1 June snowfall 0.0 0.0  
Since 1 July snowfall 69.1 83.4  
Snow Depth 0.00 in    
Sea Level Pressure  
Sea Level Pressure 29.92 in    
Wind  
Wind Speed 7 mph (North)    
Max Wind Speed 18 mph    
Max Gust Speed 23 mph    
Visibility 10 miles    
Events      
T = Trace of Precipitation, MM = Missing Value Source: NWS Daily Summary

Daily Weather History Graph

Daily Weather History Graph

Search for Another Location

Airport or City:

Trip Planner

Search our weather history database for the weather conditions in past years. The results will help you decide how hot, cold, wet, or windy it might be!

Date:

Astronomy

Jun. 18, 2013 Rise Set
Actual Time 5:27 AM EDT 8:43 PM EDT
Civil Twilight 4:52 AM EDT 9:17 PM EDT
Nautical Twilight 4:07 AM EDT 10:02 PM EDT
Astronomical Twilight 3:13 AM EDT 10:57 PM EDT
Moon 3:20 PM EDT (6/18) 1:39 AM EDT (6/18)
Length of Visible Light 16h 25m
Length of Day
15h 15m
Waxing Gibbous, 70% of the Moon is Illuminated
Jun 18
Waxing Gibbous
Jun 23
Full
Jun 30
Last Quarter
Jul 8
New
Jul 15
First Quarter

Hourly Weather History & Observations

Time (EDT) Temp. Dew Point Humidity Pressure Visibility Wind Dir Wind Speed Gust Speed Precip Events Conditions
12:53 AM 62.1 °F 54.0 °F 75% 29.92 in 10.0 mi Calm Calm - N/A   Clear
1:53 AM 61.0 °F 53.1 °F 75% 29.91 in 10.0 mi ENE 3.5 mph - N/A   Clear
2:53 AM 61.0 °F 52.0 °F 72% 29.90 in 10.0 mi SSE 4.6 mph - N/A   Clear
3:53 AM 57.0 °F 53.1 °F 87% 29.89 in 10.0 mi Calm Calm - N/A   Scattered Clouds
4:53 AM 59.0 °F 54.0 °F 83% 29.88 in 10.0 mi Calm Calm - N/A   Overcast
5:53 AM 59.0 °F 54.0 °F 83% 29.90 in 10.0 mi Calm Calm - N/A   Overcast
6:53 AM 57.9 °F 55.0 °F 90% 29.90 in 10.0 mi ENE 3.5 mph - N/A   Overcast
7:53 AM 61.0 °F 55.9 °F 83% 29.91 in 10.0 mi Calm Calm - N/A   Mostly Cloudy
8:53 AM 64.0 °F 55.9 °F 75% 29.92 in 10.0 mi NW 3.5 mph - N/A   Mostly Cloudy
9:53 AM 66.9 °F 57.0 °F 70% 29.92 in 10.0 mi NW 4.6 mph - 0.00 in   Mostly Cloudy
10:53 AM 69.1 °F 59.0 °F 70% 29.92 in 10.0 mi North 11.5 mph - N/A   Mostly Cloudy
11:53 AM 69.1 °F 59.0 °F 70% 29.92 in 10.0 mi North 9.2 mph - N/A   Mostly Cloudy
12:53 PM 72.0 °F 57.9 °F 61% 29.91 in 10.0 mi North 9.2 mph - N/A   Mostly Cloudy
1:53 PM 70.0 °F 57.0 °F 63% 29.91 in 10.0 mi North 10.4 mph - N/A   Mostly Cloudy
2:43 PM 69.8 °F 57.2 °F 64% 29.93 in 10.0 mi NNE 11.5 mph - N/A   Mostly Cloudy
2:53 PM 69.1 °F 57.0 °F 65% 29.91 in 10.0 mi NNE 11.5 mph - N/A   Mostly Cloudy
3:00 PM 69.8 °F 55.4 °F 60% 29.93 in 10.0 mi North 13.8 mph - N/A   Scattered Clouds
3:53 PM 66.9 °F 55.0 °F 66% 29.91 in 10.0 mi North 15.0 mph 23.0 mph N/A   Partly Cloudy
4:48 PM 66.2 °F 55.4 °F 68% 29.93 in 10.0 mi NNE 13.8 mph 18.4 mph N/A   Mostly Cloudy
4:53 PM 66.0 °F 55.0 °F 68% 29.91 in 10.0 mi North 15.0 mph - N/A   Mostly Cloudy
5:10 PM 66.2 °F 53.6 °F 64% 29.93 in 10.0 mi North 13.8 mph - N/A   Overcast
5:53 PM 64.0 °F 53.1 °F 67% 29.92 in 10.0 mi North 13.8 mph - N/A   Overcast
6:53 PM 64.9 °F 53.1 °F 65% 29.93 in 10.0 mi North 13.8 mph - N/A   Partly Cloudy
7:53 PM 62.1 °F 52.0 °F 70% 29.94 in 10.0 mi NNE 5.8 mph - N/A   Clear
8:53 PM 60.1 °F 52.0 °F 75% 29.95 in 10.0 mi NNE 5.8 mph - N/A   Scattered Clouds
9:53 PM 57.9 °F 48.9 °F 72% 29.96 in 10.0 mi North 8.1 mph - N/A   Clear
10:53 PM 57.0 °F 48.0 °F 72% 29.97 in 10.0 mi North 9.2 mph - N/A   Clear
11:53 PM 55.0 °F 46.9 °F 74% 29.98 in 10.0 mi North 9.2 mph - N/A   Clear